• In Austria
  • List of Countries
  • For 7 days
  • Water Temperature
  • Satellite Maps
  • Weather Map
  • News
  • Weather Widgets
  • user-avatar
    Login

    Hourly Weather Fez

    Today, 24 June, Sunday

    Time Temperature Precipitation Wind Pressure Humidity
    00:00 +25°C° 0 mm 1 mps 729 mmHg 75%
    01:00 +24°C° 0 mm 1 mps 729 mmHg 76%
    02:00 +24°C° 0 mm 1 mps 728 mmHg 77%
    03:00 +24°C° 0 mm 1 mps 728 mmHg 78%
    04:00 +24°C° 0 mm 1 mps 728 mmHg 78%
    05:00 +24°C° 0 mm 1 mps 728 mmHg 78%
    06:00 +24°C° 0 mm 1 mps 728 mmHg 78%
    07:00 +25°C° 0 mm 2 mps 729 mmHg 72%
    08:00 +26°C° 0 mm 2 mps 729 mmHg 66%
    09:00 +28°C° 0 mm 3 mps 729 mmHg 60%
    10:00 +29°C° 0 mm 3 mps 729 mmHg 55%
    11:00 +32°C° 0 mm 4 mps 729 mmHg 50%
    12:00 +33°C° 0 mm 4 mps 729 mmHg 45%
    13:00 +34°C° 0 mm 5 mps 729 mmHg 44%
    14:00 +34°C° 0 mm 5 mps 728 mmHg 43%
    15:00 +34°C° 0 mm 5 mps 728 mmHg 42%
    16:00 +33°C° 0 mm 5 mps 728 mmHg 46%
    17:00 +32°C° 0 mm 5 mps 728 mmHg 50%
    18:00 +30°C° 0 mm 4 mps 728 mmHg 54%
    19:00 +29°C° 0 mm 4 mps 729 mmHg 59%
    20:00 +27°C° 0 mm 3 mps 729 mmHg 64%
    21:00 +26°C° 0 mm 2 mps 730 mmHg 69%
    22:00 +25°C° 0 mm 2 mps 730 mmHg 72%
    23:00 +24°C° 0 mm 2 mps 730 mmHg 75%

    Tomorrow, 25 June, Monday

    Time Temperature Precipitation Wind Pressure Humidity
    00:00 +24°C° 0 mm 2 mps 730 mmHg 78%
    01:00 +23°C° 0 mm 1 mps 730 mmHg 80%
    02:00 +23°C° 0 mm 1 mps 730 mmHg 81%
    03:00 +23°C° 0 mm 1 mps 729 mmHg 83%
    04:00 +23°C° 0 mm 1 mps 729 mmHg 83%
    05:00 +22°C° 0 mm 1 mps 729 mmHg 84%
    06:00 +22°C° 0 mm 1 mps 729 mmHg 84%
    07:00 +23°C° 0 mm 1 mps 730 mmHg 79%
    08:00 +24°C° 0 mm 1 mps 730 mmHg 74%
    09:00 +26°C° 0 mm 2 mps 730 mmHg 68%
    10:00 +27°C° 0 mm 2 mps 730 mmHg 63%
    11:00 +29°C° 0 mm 2 mps 730 mmHg 57%
    12:00 +30°C° 0 mm 3 mps 730 mmHg 51%
    13:00 +31°C° 0 mm 3 mps 730 mmHg 48%
    14:00 +33°C° 0 mm 4 mps 730 mmHg 46%
    15:00 +34°C° 0 mm 4 mps 730 mmHg 43%
    16:00 +33°C° 0 mm 4 mps 730 mmHg 46%
    17:00 +33°C° 0 mm 4 mps 729 mmHg 48%
    18:00 +32°C° 0 mm 4 mps 729 mmHg 51%
    19:00 +29°C° 0 mm 4 mps 730 mmHg 56%
    20:00 +28°C° 0 mm 3 mps 730 mmHg 61%
    21:00 +27°C° 0 mm 2 mps 731 mmHg 65%
    22:00 +26°C° 0 mm 2 mps 731 mmHg 68%
    23:00 +25°C° 0 mm 1 mps 731 mmHg 70%

    Day after tomorrow, 26 June, Tuesday

    Time Temperature Precipitation Wind Pressure Humidity
    00:00 +25°C° 0 mm 1 mps 731 mmHg 73%
    01:00 +24°C° 0 mm 1 mps 730 mmHg 75%
    02:00 +24°C° 0 mm 1 mps 730 mmHg 77%
    03:00 +23°C° 0 mm 1 mps 730 mmHg 79%
    04:00 +23°C° 0 mm 1 mps 730 mmHg 80%
    05:00 +23°C° 0 mm 1 mps 730 mmHg 81%
    06:00 +23°C° 0 mm 1 mps 730 mmHg 82%
    07:00 +24°C° 0 mm 1 mps 730 mmHg 76%
    08:00 +25°C° 0 mm 1 mps 730 mmHg 70%
    09:00 +27°C° 0 mm 2 mps 730 mmHg 64%
    10:00 +28°C° 0 mm 2 mps 730 mmHg 58%
    11:00 +30°C° 0 mm 3 mps 730 mmHg 53%
    12:00 +31°C° 0 mm 3 mps 730 mmHg 47%
    13:00 +33°C° 0 mm 4 mps 730 mmHg 45%
    14:00 +34°C° 0 mm 4 mps 730 mmHg 42%
    15:00 +35°C° 0 mm 5 mps 730 mmHg 40%
    16:00 +34°C° 0 mm 5 mps 730 mmHg 42%
    17:00 +33°C° 0 mm 5 mps 730 mmHg 44%
    18:00 +32°C° 0 mm 5 mps 730 mmHg 45%
    19:00 +30°C° 0 mm 4 mps 730 mmHg 49%
    20:00 +28°C° 0 mm 3 mps 731 mmHg 53%
    21:00 +27°C° 0 mm 2 mps 731 mmHg 57%
    22:00 +26°C° 0 mm 2 mps 731 mmHg 59%
    23:00 +25°C° 0 mm 2 mps 731 mmHg 62%

    27 June, Wednesday

    Time Temperature Precipitation Wind Pressure Humidity
    00:00 +25°C° 0 mm 1 mps 731 mmHg 64%
    01:00 +24°C° 0 mm 1 mps 731 mmHg 66%
    02:00 +24°C° 0 mm 1 mps 731 mmHg 68%
    03:00 +23°C° 0 mm 1 mps 730 mmHg 69%
    04:00 +23°C° 0 mm 1 mps 730 mmHg 71%
    05:00 +23°C° 0 mm 1 mps 730 mmHg 72%
    06:00 +23°C° 0 mm 1 mps 730 mmHg 73%
    07:00 +24°C° 0 mm 1 mps 730 mmHg 67%
    08:00 +25°C° 0 mm 1 mps 731 mmHg 60%
    09:00 +27°C° 0 mm 1 mps 731 mmHg 54%
    10:00 +28°C° 0 mm 2 mps 730 mmHg 49%
    11:00 +30°C° 0 mm 2 mps 730 mmHg 44%
    12:00 +33°C° 0 mm 3 mps 730 mmHg 39%
    13:00 +33°C° 0 mm 3 mps 730 mmHg 37%
    14:00 +34°C° 0 mm 4 mps 729 mmHg 35%
    15:00 +35°C° 0 mm 4 mps 729 mmHg 33%
    16:00 +34°C° 0 mm 4 mps 729 mmHg 35%
    17:00 +34°C° 0 mm 5 mps 729 mmHg 37%
    18:00 +33°C° 0 mm 5 mps 729 mmHg 38%
    19:00 +30°C° 0.1 mm 4 mps 729 mmHg 43%
    20:00 +29°C° 0.1 mm 3 mps 729 mmHg 47%
    21:00 +27°C° 0.1 mm 2 mps 730 mmHg 52%
    22:00 +26°C° 0.1 mm 2 mps 730 mmHg 54%
    23:00 +26°C° 0.1 mm 2 mps 729 mmHg 57%

    28 June, Thursday

    Time Temperature Precipitation Wind Pressure Humidity
    00:00 +25°C° 0.1 mm 2 mps 729 mmHg 60%
    01:00 +24°C° 0 mm 1 mps 729 mmHg 62%
    02:00 +24°C° 0 mm 1 mps 729 mmHg 64%
    03:00 +23°C° 0 mm 1 mps 728 mmHg 66%
    04:00 +23°C° 0 mm 1 mps 728 mmHg 67%
    05:00 +23°C° 0 mm 1 mps 728 mmHg 68%
    06:00 +22°C° 0 mm 1 mps 728 mmHg 70%
    07:00 +24°C° 0 mm 1 mps 728 mmHg 64%
    08:00 +25°C° 0 mm 2 mps 728 mmHg 59%
    09:00 +26°C° 0 mm 2 mps 728 mmHg 54%
    10:00 +27°C° 0 mm 2 mps 728 mmHg 49%
    11:00 +29°C° 0 mm 3 mps 728 mmHg 45%
    12:00 +30°C° 0 mm 3 mps 727 mmHg 41%
    13:00 +32°C° 0 mm 4 mps 727 mmHg 40%
    14:00 +32°C° 0 mm 4 mps 727 mmHg 38%
    15:00 +33°C° 0 mm 5 mps 726 mmHg 37%
    16:00 +32°C° 0 mm 5 mps 726 mmHg 39%
    17:00 +30°C° 0 mm 5 mps 726 mmHg 41%
    18:00 +29°C° 0 mm 6 mps 726 mmHg 43%
    19:00 +28°C° 0 mm 5 mps 727 mmHg 46%
    20:00 +27°C° 0 mm 4 mps 727 mmHg 50%
    21:00 +25°C° 0 mm 2 mps 727 mmHg 53%
    22:00 +25°C° 0 mm 2 mps 727 mmHg 56%
    23:00 +24°C° 0 mm 2 mps 727 mmHg 58%

    29 June, Friday

    Time Temperature Precipitation Wind Pressure Humidity
    00:00 +23°C° 0 mm 1 mps 727 mmHg 61%
    01:00 +23°C° 0 mm 1 mps 727 mmHg 63%
    02:00 +22°C° 0 mm 1 mps 727 mmHg 65%
    03:00 +22°C° 0 mm 1 mps 726 mmHg 67%
    04:00 +22°C° 0 mm 1 mps 726 mmHg 68%
    05:00 +22°C° 0 mm 1 mps 726 mmHg 69%
    06:00 +22°C° 0 mm 1 mps 727 mmHg 70%
    07:00 +23°C° 0 mm 1 mps 727 mmHg 64%
    08:00 +24°C° 0 mm 1 mps 727 mmHg 58%
    09:00 +25°C° 0 mm 2 mps 727 mmHg 52%
    10:00 +27°C° 0 mm 2 mps 727 mmHg 47%
    11:00 +28°C° 0 mm 3 mps 727 mmHg 42%
    12:00 +30°C° 0 mm 3 mps 727 mmHg 37%
    13:00 +31°C° 0 mm 3 mps 727 mmHg 35%
    14:00 +32°C° 0 mm 4 mps 726 mmHg 34%
    15:00 +33°C° 0 mm 4 mps 726 mmHg 32%
    16:00 +32°C° 0 mm 4 mps 726 mmHg 34%
    17:00 +32°C° 0 mm 5 mps 726 mmHg 37%
    18:00 +30°C° 0 mm 5 mps 726 mmHg 39%
    19:00 +29°C° 0 mm 4 mps 727 mmHg 44%
    20:00 +27°C° 0 mm 3 mps 727 mmHg 48%
    21:00 +26°C° 0 mm 2 mps 728 mmHg 52%
    22:00 +25°C° 0 mm 2 mps 728 mmHg 54%
    23:00 +25°C° 0 mm 1 mps 728 mmHg 56%
    Show more